Elizabethtown, NC

7:00 AM EDT on May 26, 2017 (GMT -0400)
Elizabethtown

Weather History for KEYF - January, 2013

Change the Weather History Date:

Sunday, January 20, 2013

  Actual Average (KILM) Record (KILM)
Temperature  
Mean Temperature 52 °F -  
Max Temperature 64 °F 55 °F 75 °F (1951)
Min Temperature 40 °F 33 °F 12 °F (1985)
Degree Days  
Heating Degree Days 13    
Growing Degree Days 2 (Base 50)    
Moisture  
Dew Point 38 °F    
Average Humidity 68    
Maximum Humidity 97    
Minimum Humidity 29    
Precipitation  
Precipitation 0.00 in - - ()
Sea Level Pressure  
Sea Level Pressure 30.10 in    
Wind  
Wind Speed 4 mph (SW)    
Max Wind Speed 12 mph    
Max Gust Speed -    
Visibility 10 miles    
Events      
Averages and records for this station are not official NWS values.
T = Trace of Precipitation, MM = Missing Value Source: NWS Daily Summary

Daily Weather History Graph

Daily Weather History Graph

Search for Another Location

Airport or City:

Trip Planner

Search our weather history database for the weather conditions in past years. The results will help you decide how hot, cold, wet, or windy it might be!

Date:

Astronomy

Jan. 20, 2013 Rise Set
Actual Time 7:18 AM EST 5:31 PM EST
Civil Twilight 6:51 AM EST 5:58 PM EST
Nautical Twilight 6:20 AM EST 6:28 PM EST
Astronomical Twilight 5:50 AM EST 6:59 PM EST
Moon 12:30 PM EST (1/20) 1:50 AM EST (1/20)
Length of Visible Light 11h 07m
Length of Day
10h 12m
Waxing Gibbous, 66% of the Moon is Illuminated
Jan 20
Waxing Gibbous
Jan 26
Full
Feb 3
Last Quarter
Feb 10
New
Feb 17
First Quarter

Hourly Weather History & Observations

Time (EST) Temp. Windchill Dew Point Humidity Pressure Visibility Wind Dir Wind Speed Gust Speed Precip Events Conditions
12:15 AM 45.5 °F 43.2 °F 41.0 °F 84% 30.19 in 10.0 mi South 4.6 mph - N/A   Clear
12:35 AM 45.5 °F 43.2 °F 41.2 °F 85% 30.18 in 10.0 mi South 4.6 mph - N/A   Clear
12:55 AM 45.9 °F 42.9 °F 41.5 °F 85% 30.17 in 10.0 mi South 5.8 mph - N/A   Clear
1:15 AM 46.0 °F 43.1 °F 41.9 °F 85% 30.17 in 10.0 mi SSW 5.8 mph - N/A   Clear
1:35 AM 45.7 °F 43.4 °F 41.9 °F 87% 30.17 in 10.0 mi SSW 4.6 mph - N/A   Clear
1:55 AM 46.0 °F 43.9 °F 41.9 °F 85% 30.16 in 10.0 mi SSW 4.6 mph - N/A   Clear
2:15 AM 46.0 °F 44.8 °F 42.3 °F 87% 30.16 in 10.0 mi SSW 3.5 mph - N/A   Clear
2:35 AM 45.5 °F 44.2 °F 42.3 °F 88% 30.15 in 10.0 mi SSW 3.5 mph - N/A   Clear
2:55 AM 44.6 °F - 41.9 °F 90% 30.16 in 10.0 mi Calm Calm - N/A   Clear
3:15 AM 45.1 °F - 42.4 °F 90% 30.16 in 10.0 mi Calm Calm - N/A   Clear
3:35 AM 43.9 °F 42.3 °F 41.9 °F 93% 30.16 in 10.0 mi SW 3.5 mph - N/A   Clear
3:55 AM 44.4 °F - 42.6 °F 93% 30.16 in 10.0 mi Calm Calm - N/A   Clear
4:15 AM 43.2 °F - 41.2 °F 93% 30.14 in 10.0 mi Calm Calm - N/A   Clear
4:35 AM 42.1 °F - 40.6 °F 95% 30.14 in 10.0 mi Calm Calm - N/A   Clear
4:55 AM 42.3 °F 40.5 °F 41.2 °F 96% 30.14 in 10.0 mi South 3.5 mph - N/A   Clear
5:15 AM 42.1 °F - 41.2 °F 97% 30.14 in 10.0 mi Calm Calm - N/A   Clear
5:35 AM 42.4 °F 40.7 °F 41.2 °F 95% 30.14 in 10.0 mi SW 3.5 mph - N/A   Clear
5:55 AM 42.3 °F 40.5 °F 41.0 °F 95% 30.14 in 10.0 mi SW 3.5 mph - N/A   Clear
6:15 AM 42.1 °F - 40.6 °F 95% 30.14 in 10.0 mi Calm Calm - N/A   Clear
6:35 AM 42.1 °F - 40.6 °F 95% 30.14 in 10.0 mi Calm Calm - N/A   Clear
6:55 AM 41.9 °F 40.0 °F 40.3 °F 94% 30.14 in 10.0 mi SW 3.5 mph - N/A   Clear
7:15 AM 42.1 °F 40.2 °F 40.5 °F 94% 30.14 in 10.0 mi SW 3.5 mph - N/A   Clear
7:35 AM 41.5 °F 39.6 °F 40.1 °F 95% 30.14 in 10.0 mi SSW 3.5 mph - N/A   Clear
7:55 AM 42.1 °F 40.2 °F 40.8 °F 95% 30.14 in 10.0 mi SSW 3.5 mph - N/A   Clear
8:15 AM 44.1 °F 40.8 °F 41.9 °F 92% 30.14 in 10.0 mi SW 5.8 mph - N/A   Clear
8:35 AM 46.0 °F 43.9 °F 42.1 °F 86% 30.14 in 10.0 mi WSW 4.6 mph - N/A   Clear
8:55 AM 48.0 °F - 42.3 °F 80% 30.14 in 10.0 mi WSW 5.8 mph - N/A   Clear
9:15 AM 49.8 °F - 42.1 °F 75% 30.14 in 10.0 mi WSW 4.6 mph - N/A   Clear
9:35 AM 51.6 °F - 41.7 °F 69% 30.14 in 10.0 mi WSW 9.2 mph - N/A   Clear
9:55 AM 53.1 °F - 40.6 °F 63% 30.15 in 10.0 mi West 9.2 mph - N/A   Clear
10:15 AM 54.1 °F - 39.0 °F 57% 30.15 in 10.0 mi West 10.4 mph - N/A   Clear
10:35 AM 55.8 °F - 36.9 °F 49% 30.14 in 10.0 mi WSW 10.4 mph - N/A   Clear
10:55 AM 57.4 °F - 34.0 °F 41% 30.12 in 10.0 mi WSW 11.5 mph - N/A   Clear
11:15 AM 57.9 °F - 32.7 °F 39% 30.11 in 10.0 mi West 9.2 mph - N/A   Clear
11:35 AM 59.2 °F - 33.3 °F 38% 30.10 in 10.0 mi WSW 9.2 mph - N/A   Clear
11:55 AM 59.9 °F - 31.6 °F 34% 30.09 in 10.0 mi West 11.5 mph - N/A   Clear
12:15 PM 61.0 °F - 32.5 °F 34% 30.07 in 10.0 mi West 8.1 mph - N/A   Clear
12:35 PM 60.6 °F - 31.6 °F 34% 30.06 in 10.0 mi West 8.1 mph - N/A   Clear
12:55 PM 61.5 °F - 32.2 °F 33% 30.05 in 10.0 mi WSW 5.8 mph - N/A   Clear
1:15 PM 62.1 °F - 32.0 °F 32% 30.04 in 10.0 mi WSW 8.1 mph - N/A   Clear
1:35 PM 63.1 °F - 31.1 °F 30% 30.04 in 10.0 mi WSW 8.1 mph - N/A   Clear
1:55 PM 63.0 °F - 30.2 °F 29% 30.03 in 10.0 mi West 8.1 mph - N/A   Clear
2:15 PM 63.5 °F - 31.6 °F 30% 30.03 in 10.0 mi West 8.1 mph - N/A   Clear
2:35 PM 63.7 °F - 32.2 °F 31% 30.02 in 10.0 mi West 11.5 mph - N/A   Clear
2:55 PM 63.9 °F - 31.1 °F 29% 30.02 in 10.0 mi WSW 5.8 mph - N/A   Clear
3:15 PM 64.4 °F - 32.2 °F 30% 30.01 in 10.0 mi WSW 5.8 mph - N/A   Clear
3:35 PM 63.9 °F - 32.2 °F 31% 30.01 in 10.0 mi WSW 6.9 mph - N/A   Clear
3:55 PM 64.2 °F - 33.1 °F 31% 30.01 in 10.0 mi SW 6.9 mph - N/A   Clear
4:15 PM 63.7 °F - 33.8 °F 33% 30.02 in 10.0 mi WSW 6.9 mph - N/A   Clear
4:35 PM 63.1 °F - 34.5 °F 34% 30.02 in 10.0 mi WSW 4.6 mph - N/A   Clear
4:55 PM 62.8 °F - 35.8 °F 37% 30.02 in 10.0 mi WSW 4.6 mph - N/A   Clear
5:15 PM 61.0 °F - 36.7 °F 40% 30.03 in 10.0 mi WSW 3.5 mph - N/A   Clear
5:35 PM 58.6 °F - 36.1 °F 43% 30.04 in 10.0 mi SW 3.5 mph - N/A   Clear
5:55 PM 55.9 °F - 37.9 °F 51% 30.04 in 10.0 mi Calm Calm - N/A   Clear
6:15 PM 52.9 °F - 39.7 °F 61% 30.04 in 10.0 mi Calm Calm - N/A   Clear
6:35 PM 50.4 °F - 38.7 °F 64% 30.05 in 10.0 mi Calm Calm - N/A   Clear
6:55 PM 49.3 °F - 38.3 °F 66% 30.05 in 10.0 mi SW 3.5 mph - N/A   Clear
7:15 PM 47.3 °F - 38.7 °F 72% 30.06 in 10.0 mi SW 3.5 mph - N/A   Clear
7:35 PM 48.4 °F - 38.5 °F 69% 30.06 in 10.0 mi Calm Calm - N/A   Clear
7:55 PM 46.2 °F - 38.7 °F 75% 30.06 in 10.0 mi Calm Calm - N/A   Clear
8:15 PM 46.0 °F - 38.1 °F 74% 30.06 in 10.0 mi Calm Calm - N/A   Clear
8:35 PM 45.3 °F - 37.8 °F 75% 30.06 in 10.0 mi Calm Calm - N/A   Clear
8:55 PM 44.4 °F - 37.4 °F 76% 30.07 in 10.0 mi Calm Calm - N/A   Clear
9:15 PM 43.3 °F - 37.4 °F 80% 30.07 in 10.0 mi Calm Calm - N/A   Clear
9:35 PM 43.7 °F - 37.6 °F 79% 30.08 in 10.0 mi Calm Calm - N/A   Clear
9:55 PM 43.3 °F - 37.4 °F 80% 30.08 in 10.0 mi Calm Calm - N/A   Clear
10:15 PM 42.8 °F - 36.9 °F 80% 30.09 in 10.0 mi Calm Calm - N/A   Clear
10:35 PM 42.4 °F - 36.5 °F 79% 30.09 in 10.0 mi Calm Calm - N/A   Clear
10:55 PM 40.5 °F - 36.3 °F 85% 30.09 in 10.0 mi Calm Calm - N/A   Clear
11:15 PM 40.3 °F - 35.8 °F 84% 30.09 in 10.0 mi Calm Calm - N/A   Clear
11:35 PM 41.0 °F 39.0 °F 36.0 °F 82% 30.09 in 10.0 mi NNW 3.5 mph - N/A   Clear
11:55 PM 43.0 °F - 36.3 °F 77% 30.09 in 10.0 mi Calm Calm - N/A   Clear